Perryton, TX

12:19 AM CST on November 23, 2017 (GMT -0600)
Perryton Ochiltree County

Weather History for KPYX - April, 2014

Change the Weather History Date:

Tuesday, April 8, 2014

  Actual Average Record
Temperature  
Mean Temperature 50 °F -  
Max Temperature 70 °F 70 °F 91 °F (2015)
Min Temperature 29 °F 38 °F 25 °F (1973)
Degree Days  
Heating Degree Days 16    
Moisture  
Dew Point 28 °F    
Average Humidity 50    
Maximum Humidity 85    
Minimum Humidity 22    
Precipitation  
Precipitation 0.00 in - - ()
Sea Level Pressure  
Sea Level Pressure 30.16 in    
Wind  
Wind Speed 10 mph (NW)    
Max Wind Speed 26 mph    
Max Gust Speed 34 mph    
Visibility 10 miles    
Events      
Averages and records for this station are not official NWS values.
T = Trace of Precipitation, MM = Missing Value Source: NWS Daily Summary

Daily Weather History Graph

Daily Weather History Graph

Search for Another Location

Airport or City:

Trip Planner

Search our weather history database for the weather conditions in past years. The results will help you decide how hot, cold, wet, or windy it might be!

Date:

Astronomy

Apr. 08, 2014 Rise Set
Actual Time 7:19 AM CDT 8:11 PM CDT
Civil Twilight 6:52 AM CDT 8:37 PM CDT
Nautical Twilight 6:21 AM CDT 9:08 PM CDT
Astronomical Twilight 5:49 AM CDT 9:40 PM CDT
Moon 2:15 PM CDT (4/8) 3:23 AM CDT (4/8)
Length of Visible Light 13h 44m
Length of Day
12h 52m
Waxing Gibbous, 63% of the Moon is Illuminated
Apr 8
Waxing Gibbous
Apr 15
Full
Apr 22
Last Quarter
Apr 29
New
May 6
First Quarter

Hourly Weather History & Observations

Time (CDT) Temp. Windchill Dew Point Humidity Pressure Visibility Wind Dir Wind Speed Gust Speed Precip Events Conditions
12:15 AM 35.2 °F 28.8 °F 28.2 °F 76% 30.15 in 10.0 mi WNW 8.1 mph - N/A   Clear
12:35 AM 36.0 °F 29.0 °F 28.9 °F 76% 30.16 in 10.0 mi West 9.2 mph - N/A   Clear
12:55 AM 35.1 °F 29.3 °F 28.6 °F 77% 30.17 in 10.0 mi West 6.9 mph - N/A   Clear
1:15 AM 35.1 °F 28.6 °F 28.6 °F 77% 30.17 in 10.0 mi West 8.1 mph - N/A   Clear
1:35 AM 34.2 °F 27.5 °F 28.0 °F 78% 30.17 in 10.0 mi West 8.1 mph - N/A   Clear
1:55 AM 35.6 °F 28.6 °F 27.7 °F 73% 30.17 in 10.0 mi WNW 9.2 mph - N/A   Clear
2:15 AM 34.2 °F 27.5 °F 27.7 °F 77% 30.18 in 10.0 mi WNW 8.1 mph - N/A   Clear
2:35 AM 34.2 °F 26.8 °F 27.5 °F 77% 30.18 in 10.0 mi WNW 9.2 mph - N/A   Clear
2:55 AM 32.0 °F 24.2 °F 27.0 °F 82% 30.18 in 10.0 mi West 9.2 mph - N/A   Clear
3:15 AM 31.8 °F 24.6 °F 26.6 °F 81% 30.17 in 10.0 mi West 8.1 mph - N/A   Clear
3:35 AM 31.1 °F 23.1 °F 26.4 °F 83% 30.17 in 10.0 mi West 9.2 mph - N/A   Clear
3:55 AM 31.8 °F 24.6 °F 26.6 °F 81% 30.17 in 10.0 mi West 8.1 mph - N/A   Clear
4:15 AM 31.1 °F 24.5 °F 25.7 °F 80% 30.17 in 10.0 mi West 6.9 mph - N/A   Clear
4:35 AM 30.0 °F 21.7 °F 25.5 °F 83% 30.17 in 10.0 mi West 9.2 mph - N/A   Clear
4:55 AM 29.1 °F 20.6 °F 25.2 °F 85% 30.17 in 10.0 mi West 9.2 mph - N/A   Clear
5:15 AM 29.3 °F 20.8 °F 25.3 °F 85% 30.17 in 10.0 mi West 9.2 mph - N/A   Clear
5:35 AM 30.4 °F 22.2 °F 25.9 °F 83% 30.17 in 10.0 mi West 9.2 mph - N/A   Clear
5:55 AM 31.1 °F 22.4 °F 25.9 °F 81% 30.18 in 10.0 mi West 10.4 mph - N/A   Clear
6:15 AM 30.4 °F 22.2 °F 25.5 °F 82% 30.18 in 10.0 mi West 9.2 mph - N/A   Clear
6:35 AM 30.4 °F 22.2 °F 25.5 °F 82% 30.19 in 10.0 mi West 9.2 mph - N/A   Clear
6:55 AM 29.7 °F 22.8 °F 25.3 °F 84% 30.19 in 10.0 mi West 6.9 mph - N/A   Clear
7:15 AM 29.8 °F 22.2 °F 25.3 °F 83% 30.19 in 10.0 mi West 8.1 mph - N/A   Clear
7:35 AM 30.9 °F 24.3 °F 26.1 °F 82% 30.19 in 10.0 mi West 6.9 mph - N/A   Clear
7:55 AM 33.3 °F 25.1 °F 27.0 °F 78% 30.19 in 10.0 mi West 10.4 mph - N/A   Clear
8:15 AM 35.6 °F 29.9 °F 27.1 °F 71% 30.19 in 10.0 mi West 6.9 mph - N/A   Clear
8:35 AM 37.8 °F 33.3 °F 28.4 °F 69% 30.19 in 10.0 mi WNW 5.8 mph - N/A   Clear
8:55 AM 41.7 °F 35.6 °F 28.4 °F 59% 30.20 in 10.0 mi WNW 10.4 mph - N/A   Clear
9:15 AM 43.7 °F 37.7 °F 27.7 °F 53% 30.21 in 10.0 mi NW 11.5 mph - N/A   Clear
9:35 AM 45.9 °F 40.8 °F 28.4 °F 51% 30.21 in 10.0 mi WNW 10.4 mph - N/A   Clear
9:55 AM 48.2 °F - 28.8 °F 47% 30.21 in 10.0 mi WNW 8.1 mph - N/A   Clear
10:15 AM 50.5 °F - 28.2 °F 42% 30.21 in 10.0 mi NW 8.1 mph - N/A   Clear
10:35 AM 52.7 °F - 26.6 °F 36% 30.21 in 10.0 mi NW 9.2 mph - N/A   Clear
10:55 AM 54.5 °F - 27.0 °F 35% 30.21 in 10.0 mi NW 9.2 mph - N/A   Clear
11:15 AM 56.1 °F - 27.0 °F 33% 30.21 in 10.0 mi NW 9.2 mph - N/A   Clear
11:35 AM 57.7 °F - 27.5 °F 31% 30.21 in 10.0 mi WNW 12.7 mph - N/A   Clear
11:55 AM 59.5 °F - 28.4 °F 31% 30.21 in 10.0 mi West 11.5 mph 17.3 mph N/A   Clear
12:15 PM 62.2 °F - 27.9 °F 27% 30.19 in 10.0 mi WNW 17.3 mph 21.9 mph N/A   Clear
12:35 PM 63.5 °F - 28.6 °F 27% 30.19 in 10.0 mi WNW 18.4 mph 26.5 mph N/A   Clear
12:55 PM 66.0 °F - 28.8 °F 25% 30.17 in 10.0 mi NNW 20.7 mph 28.8 mph N/A   Clear
1:15 PM 66.7 °F - 28.8 °F 24% 30.17 in 10.0 mi NNW 17.3 mph 27.6 mph N/A   Scattered Clouds
1:35 PM 66.9 °F - 28.9 °F 24% 30.16 in 10.0 mi North 24.2 mph 29.9 mph N/A   Clear
1:55 PM 68.7 °F - 29.5 °F 23% 30.16 in 10.0 mi NNW 21.9 mph 32.2 mph N/A   Clear
2:15 PM 68.4 °F - 28.8 °F 23% 30.15 in 10.0 mi NNW 20.7 mph 33.4 mph N/A   Clear
2:35 PM 68.9 °F - 29.5 °F 23% 30.15 in 10.0 mi NW 26.5 mph 33.4 mph N/A   Clear
2:55 PM 69.1 °F - 28.8 °F 22% 30.14 in 10.0 mi NNW 16.1 mph 34.5 mph N/A   Clear
3:15 PM 69.1 °F - 29.8 °F 23% 30.13 in 10.0 mi NNW 24.2 mph 27.6 mph N/A   Clear
3:35 PM 69.6 °F - 28.6 °F 22% 30.12 in 10.0 mi North 20.7 mph 31.1 mph N/A   Clear
3:55 PM 70.2 °F - 29.7 °F 22% 30.12 in 10.0 mi NNW 18.4 mph 26.5 mph N/A   Clear
4:15 PM 69.4 °F - 29.1 °F 22% 30.12 in 10.0 mi NW 18.4 mph 28.8 mph N/A   Clear
4:35 PM 69.1 °F - 29.7 °F 23% 30.12 in 10.0 mi NNW 9.2 mph 26.5 mph N/A   Clear
4:55 PM 69.6 °F - 30.2 °F 23% 30.12 in 10.0 mi North 17.3 mph 23.0 mph N/A   Clear
5:15 PM 69.8 °F - 31.3 °F 24% 30.11 in 10.0 mi NNW 13.8 mph 20.7 mph N/A   Clear
5:35 PM 69.8 °F - 29.5 °F 22% 30.11 in 10.0 mi NW 17.3 mph 25.3 mph N/A   Clear
5:55 PM 69.8 °F - 30.4 °F 23% 30.11 in 10.0 mi NNW 13.8 mph - N/A   Clear
6:15 PM 69.6 °F - 29.8 °F 23% 30.11 in 10.0 mi North 17.3 mph 23.0 mph N/A   Clear
6:35 PM 68.9 °F - 30.7 °F 24% 30.11 in 10.0 mi North 11.5 mph - N/A   Clear
6:55 PM 68.2 °F - 30.2 °F 24% 30.12 in 10.0 mi North 11.5 mph - N/A   Clear
7:15 PM 67.1 °F - 29.8 °F 25% 30.12 in 10.0 mi NNE 6.9 mph - N/A   Clear
7:35 PM 65.5 °F - 31.3 °F 28% 30.12 in 10.0 mi NE 4.6 mph - N/A   Clear
7:55 PM 62.2 °F - 32.0 °F 32% 30.12 in 10.0 mi NE 5.8 mph - N/A   Clear
8:15 PM 60.4 °F - 30.6 °F 32% 30.12 in 10.0 mi ENE 6.9 mph - N/A   Clear
8:35 PM 56.7 °F - 30.4 °F 37% 30.12 in 10.0 mi East 5.8 mph - N/A   Clear
8:55 PM 55.6 °F - 29.5 °F 37% 30.14 in 10.0 mi ESE 6.9 mph - N/A   Clear
9:15 PM 55.0 °F - 29.5 °F 38% 30.14 in 10.0 mi ESE 8.1 mph - N/A   Clear
9:35 PM 53.8 °F - 28.8 °F 38% 30.15 in 10.0 mi ESE 6.9 mph - N/A   Clear
9:55 PM 53.8 °F - 28.9 °F 39% 30.14 in 10.0 mi ESE 8.1 mph - N/A   Clear
10:15 PM 50.2 °F - 28.2 °F 43% 30.15 in 10.0 mi ESE 9.2 mph - N/A   Clear
10:35 PM 48.4 °F - 28.2 °F 46% 30.14 in 10.0 mi SE 9.2 mph - N/A   Clear
10:55 PM 46.0 °F 41.9 °F 27.7 °F 49% 30.14 in 10.0 mi SE 8.1 mph - N/A   Clear
11:15 PM 42.1 °F 37.1 °F 27.5 °F 56% 30.14 in 10.0 mi SSE 8.1 mph - N/A   Clear
11:35 PM 41.5 °F 35.9 °F 27.5 °F 57% 30.14 in 10.0 mi SSE 9.2 mph - N/A   Clear
11:55 PM 42.1 °F 36.6 °F 28.2 °F 58% 30.14 in 10.0 mi South 9.2 mph - N/A   Clear